Weather History for Big Delta, AK

Change the Weather History Date:

Sunday, August 18, 2013

  Actual Average Record
Temperature  
Mean Temperature 58 °F -  
Max Temperature 62 °F 61 °F 81 °F (2004)
Min Temperature 53 °F 44 °F 37 °F (1998)
Degree Days  
Heating Degree Days 8    
Growing Degree Days 8 (Base 50)    
Moisture  
Dew Point 51 °F    
Average Humidity 82    
Maximum Humidity 90    
Minimum Humidity 61    
Precipitation  
Precipitation 0.02 in - - ()
Sea Level Pressure  
Sea Level Pressure 29.56 in    
Wind  
Wind Speed 7 mph (WSW)    
Max Wind Speed 12 mph    
Max Gust Speed -    
Visibility 8 miles    
Events Rain    
Averages and records for this station are not official NWS values.
T = Trace of Precipitation, MM = Missing Value Source: NWS Daily Summary

Daily Weather History Graph

Daily Weather History Graph

Search for Another Location

Airport:

Trip Planner

Search our weather history database for the weather conditions in past years. The results will help you decide how hot, cold, wet, or windy it might be!

Date:

Astronomy

Aug. 18, 2013 Rise Set
Actual Time 5:45 AM AKDT 9:45 PM AKDT
Civil Twilight 4:43 AM AKDT 10:46 PM AKDT
Nautical Twilight 2:53 AM AKDT 12:31 AM AKDT
Astronomical Twilight Sun does not rise Sun does not rise
Moon 8:15 PM AKDT (8/18) 2:32 AM AKDT (8/18)
Length of Visible Light 18h 02m
Length of Day
16h 00m
Waxing Gibbous, 93% of the Moon is Illuminated
Aug 18
Waxing Gibbous
Aug 20
Full
Aug 28
Last Quarter
Sep 5
New
Sep 12
First Quarter

Hourly Weather History & Observations

Time (AKDT) Temp. Dew Point Humidity Pressure Visibility Wind Dir Wind Speed Gust Speed Precip Events Conditions
12:53 AM 55.9 °F 53.1 °F 90% 29.52 in 10.0 mi SSW 4.6 mph - 0.00 in   Overcast
1:53 AM 55.9 °F 52.0 °F 87% 29.51 in 10.0 mi WSW 5.8 mph - N/A   Overcast
2:53 AM 55.0 °F 52.0 °F 89% 29.50 in 8.0 mi West 4.6 mph - 0.00 in Rain Light Rain
3:53 AM 55.0 °F 52.0 °F 89% 29.50 in 7.0 mi WSW 6.9 mph - 0.02 in Rain Light Rain
4:53 AM 54.0 °F 51.1 °F 90% 29.51 in 6.0 mi WSW 4.6 mph - 0.02 in Rain Light Rain
5:53 AM 54.0 °F 50.0 °F 86% 29.51 in 4.0 mi WSW 4.6 mph - 0.00 in   Smoke
6:53 AM 53.1 °F 50.0 °F 89% 29.52 in 6.0 mi WSW 4.6 mph - N/A   Smoke
7:53 AM 53.1 °F 50.0 °F 89% 29.53 in 7.0 mi West 8.1 mph - N/A   Smoke
8:53 AM 53.1 °F 50.0 °F 89% 29.54 in 6.0 mi West 9.2 mph - N/A   Smoke
9:08 AM 53.6 °F 50.0 °F 88% 29.53 in 7.0 mi West 10.4 mph - N/A   Smoke
9:28 AM 53.6 °F 50.0 °F 88% 29.53 in 8.0 mi West 9.2 mph - N/A   Smoke
9:53 AM 53.1 °F 50.0 °F 89% 29.55 in 8.0 mi West 10.4 mph - N/A   Smoke
10:53 AM 53.1 °F 50.0 °F 89% 29.57 in 9.0 mi WNW 10.4 mph - N/A   Smoke
11:53 AM 54.0 °F 50.0 °F 86% 29.58 in 10.0 mi West 11.5 mph - N/A   Smoke
12:53 PM 55.0 °F 50.0 °F 83% 29.58 in 9.0 mi West 8.1 mph - N/A   Smoke
1:53 PM 57.0 °F 50.0 °F 77% 29.59 in 9.0 mi West 6.9 mph - N/A   Smoke
2:53 PM 59.0 °F 50.0 °F 72% 29.59 in 9.0 mi WNW 8.1 mph - N/A   Smoke
3:53 PM 60.1 °F 50.0 °F 69% 29.58 in 9.0 mi West 10.4 mph - N/A   Smoke
4:53 PM 61.0 °F 48.9 °F 64% 29.57 in 10.0 mi WSW 6.9 mph - N/A   Overcast
5:53 PM 61.0 °F 51.1 °F 70% 29.57 in 10.0 mi SSW 6.9 mph - N/A   Overcast
6:53 PM 59.0 °F 52.0 °F 78% 29.58 in 7.0 mi WSW 4.6 mph - 0.01 in Rain Light Rain
7:53 PM 59.0 °F 53.1 °F 81% 29.59 in 10.0 mi SW 9.2 mph - 0.00 in   Mostly Cloudy
8:53 PM 57.9 °F 51.1 °F 78% 29.59 in 10.0 mi SW 8.1 mph - N/A   Mostly Cloudy
9:53 PM 55.9 °F 50.0 °F 80% 29.60 in 10.0 mi SW 10.4 mph - N/A   Scattered Clouds
10:53 PM 55.9 °F 50.0 °F 80% 29.61 in 10.0 mi SW 10.4 mph - N/A   Overcast
11:53 PM 55.9 °F 48.9 °F 77% 29.62 in 10.0 mi SW 10.4 mph - N/A   Overcast